This is the latest recevied weather packets stored in our database for station/object G1OCN-WX. If no packets are shown the sender has not sent any weather packets the latest 10 day(s).
| Time | Temp. | Humidity | Pressure | Rain* | Wind** | Luminosity | Snow |
|---|---|---|---|---|---|---|---|
| 1787568549 | 18.89° C | 64% | 1017.1 hPa | 0 mm | - | - | - |
| 1787567649 | 19.44° C | 64% | 1017.4 hPa | 0 mm | - | - | - |
| 1787566749 | 18.89° C | 65% | 1017.7 hPa | 0 mm | - | - | - |
| 1787565849 | 18.33° C | 69% | 1017.8 hPa | 0 mm | - | - | - |
| 1787564949 | 18.33° C | 69% | 1018 hPa | 0 mm | - | - | - |
| 1787564049 | 18.33° C | 70% | 1018.1 hPa | 0 mm | - | - | - |
| 1787563149 | 17.78° C | 73% | 1018.2 hPa | 0 mm | - | - | - |
| 1787562249 | 17.22° C | 74% | 1018.2 hPa | 0 mm | - | - | - |
| 1787561349 | 17.22° C | 75% | 1018.3 hPa | 0 mm | - | - | - |
| 1787560449 | 17.22° C | 76% | 1018.3 hPa | 0 mm | - | - | - |
| 1787559549 | 16.67° C | 76% | 1018.4 hPa | 0 mm | - | - | - |
| 1787558649 | 16.67° C | 76% | 1018.6 hPa | 0 mm | - | - | - |
| 1787557748 | 16.11° C | 77% | 1018.8 hPa | 0 mm | - | - | - |
| 1787556848 | 15.56° C | 77% | 1018.9 hPa | 0 mm | - | - | - |
| 1787555948 | 15° C | 78% | 1019 hPa | 0 mm | - | - | - |
| 1787555048 | 14.44° C | 79% | 1019.1 hPa | 0 mm | - | - | - |
| 1787554148 | 15° C | 77% | 1019.2 hPa | 0 mm | - | - | - |
| 1787553248 | 14.44° C | 78% | 1019.2 hPa | 0 mm | - | - | - |
| 1787552348 | 14.44° C | 79% | 1019.2 hPa | 0 mm | - | - | - |
| 1787551448 | 14.44° C | 79% | 1019.4 hPa | 0 mm | - | - | - |
| 1787550548 | 14.44° C | 79% | 1019.5 hPa | 0 mm | - | - | - |
| 1787549648 | 14.44° C | 79% | 1019.5 hPa | 0 mm | - | - | - |
| 1787548748 | 14.44° C | 80% | 1019.7 hPa | 0 mm | - | - | - |
| 1787547848 | 14.44° C | 81% | 1019.8 hPa | 0 mm | - | - | - |
| 1787546947 | 15° C | 81% | 1020 hPa | 0 mm | - | - | - |
* Rain latest hour (hover to see other rain measurements)
** Current wind speed in m/s (hover to see current wind gust speed)